Vorticity
9 1 -14 9 31 26 11 7 5 0 6 1 -1 3 1 4 3 5 8 4 6 5 3 4 3 3 2 2 3 3 4 4 4 3 2 1 3 3 0 -1 1 1 -0 2 6 7 13 19 14 7 5 3 5 5 2 2 3 4 4 2 1 5 5 6 6 5 5 4 3 5 6 7 6 5 6 5 4 5 6 4 4 4 4 4 3 3 3 3
10 6 -3 -5 12 33 19 6 10 0 6 9 -2 3 2 1 5 4 7 8 5 4 4 4 3 3 3 3 2 4 4 4 5 3 2 2 2 3 -0 -1 1 0 1 1 4 7 11 21 16 5 3 2 2 4 3 1 1 2 4 3 1 4 6 6 7 5 5 4 2 4 6 6 8 6 6 6 4 5 6 4 4 4 4 4 3 3 4 3
14 7 3 1 -2 25 31 8 11 4 -2 13 3 -1 5 -1 2 5 3 7 8 6 4 3 4 3 3 4 2 3 4 4 4 2 4 2 -1 3 2 0 1 -1 1 1 2 5 9 20 20 6 4 4 0 2 4 3 0 0 1 1 2 4 5 6 7 6 5 4 3 4 5 6 9 8 6 7 5 5 6 5 4 4 5 5 4 3 3 4
7 14 1 6 -2 6 33 15 7 17 1 4 10 -0 3 3 -0 3 4 4 6 6 5 3 3 3 3 4 4 3 4 5 3 1 5 4 -1 2 3 1 1 -1 1 3 1 3 6 15 21 11 7 6 1 -1 1 3 1 0 1 1 3 3 4 6 6 7 6 4 3 4 4 6 9 8 6 6 4 5 6 5 4 4 5 5 5 4 3 4
-5 18 5 2 1 -7 28 31 -0 14 15 -0 9 10 2 3 4 1 2 4 5 4 5 6 3 3 3 2 6 5 5 5 2 2 4 4 2 2 3 1 1 0 1 2 0 2 4 8 17 15 9 5 2 -1 -3 -0 1 2 2 2 4 3 3 5 6 7 6 4 3 4 3 4 9 9 6 5 4 5 6 5 5 5 5 5 5 5 4 4
-5 6 9 3 4 -11 10 42 16 1 17 10 -1 8 9 1 2 3 2 3 4 4 3 6 5 3 3 2 5 6 6 3 -1 6 5 2 4 2 4 3 1 1 0 2 0 0 2 4 10 15 15 6 0 2 1 -1 1 2 2 -1 1 4 3 4 6 6 7 5 2 2 2 3 7 8 7 5 4 5 5 5 6 6 6 5 6 5 4 5
10 -1 5 2 2 -5 -8 24 39 10 6 22 6 1 15 11 6 2 2 4 2 4 4 5 6 4 4 2 4 7 6 -1 -3 6 6 2 4 2 4 4 2 2 1 1 1 0 1 2 5 11 17 11 6 14 16 7 3 3 2 0 -2 1 4 4 5 7 7 7 3 1 2 3 5 7 8 5 5 6 5 5 5 5 6 6 6 6 5 5
22 14 8 6 -3 1 3 1 27 29 0 12 17 3 4 6 12 7 -1 4 3 4 4 4 6 5 5 3 4 7 5 -1 -3 4 7 4 4 3 4 4 3 3 2 2 1 1 -0 0 4 7 11 9 5 17 27 18 8 7 4 2 1 0 3 5 5 6 8 7 4 2 1 2 4 6 7 6 6 6 5 5 4 4 6 6 6 6 6 5
14 24 10 14 1 -12 11 -4 -2 33 16 0 9 11 9 -2 1 9 4 2 3 4 5 5 6 5 5 4 5 5 2 0 -0 3 6 5 5 4 3 5 6 4 4 3 1 1 0 -1 1 4 7 5 1 8 24 25 13 8 6 3 5 3 2 5 6 5 7 8 5 3 2 1 4 5 6 7 7 7 6 5 4 5 5 6 7 5 6 6
2 25 9 12 9 -17 -3 -4 -15 18 26 10 6 7 14 12 3 4 7 5 2 4 4 5 5 6 6 4 6 3 0 3 1 3 5 4 6 5 2 3 6 6 4 3 2 2 2 0 -1 1 4 5 4 3 15 30 21 7 5 5 5 4 2 4 6 6 5 8 7 3 3 2 2 4 5 7 7 6 6 5 5 5 5 6 6 6 6 6
-4 19 14 13 14 -2 -1 0 -12 1 18 17 18 15 4 9 16 10 11 8 3 3 4 6 6 6 7 5 6 2 2 7 2 1 4 3 4 5 4 4 5 7 4 0 1 2 1 0 -0 0 3 5 6 2 7 27 29 9 1 6 6 3 2 2 4 7 6 6 7 5 4 2 2 4 4 6 7 6 6 5 5 4 5 7 6 6 6 5
-9 -0 10 20 15 9 13 8 -9 -5 17 12 7 23 14 1 9 9 9 11 6 4 2 4 6 5 6 7 4 0 3 8 3 1 3 3 3 4 5 5 5 9 8 3 1 2 1 -1 -0 -1 1 3 4 3 3 17 31 20 3 1 6 5 1 -1 2 6 7 6 6 5 4 3 4 4 2 5 7 7 8 6 6 5 5 6 6 7 6 6
-12 -15 -3 23 18 9 18 16 0 -5 13 14 -7 1 18 16 14 12 7 8 7 5 5 4 6 7 7 7 2 1 5 5 4 2 2 3 2 3 5 5 6 8 7 4 3 3 1 0 0 -1 -1 2 4 4 1 4 20 28 18 4 1 7 5 -1 -0 5 7 7 7 5 5 5 4 4 2 4 6 7 9 7 5 6 6 6 7 7 6 6
-12 -22 -17 16 21 6 11 19 13 2 2 16 11 -9 -6 6 12 20 18 14 11 6 6 5 5 6 6 7 4 4 7 4 4 3 2 4 2 3 5 6 6 5 3 3 4 3 3 2 -0 -1 -1 1 5 6 3 -1 5 19 25 17 3 4 10 4 -2 3 7 7 7 6 5 6 4 2 2 2 3 6 8 8 6 5 6 6 6 7 7 7
-2 -18 -25 -2 22 9 -0 12 11 5 -1 4 24 10 -11 -10 -8 4 13 14 16 12 10 8 6 6 5 6 5 4 6 4 5 4 3 3 1 4 6 6 6 6 7 5 5 4 4 3 1 1 1 0 1 3 5 2 2 9 19 27 18 4 5 7 -0 1 7 7 7 7 6 6 4 1 1 2 2 4 7 8 7 6 7 6 7 7 6 6
5 -11 -22 -19 13 17 -2 10 10 4 4 -6 14 26 11 8 0 -1 7 9 12 11 11 9 5 5 6 6 4 4 5 4 5 4 4 3 1 2 3 6 6 4 6 5 5 6 5 4 3 2 0 -0 -0 3 5 1 -3 0 9 22 27 18 7 4 1 -0 5 8 6 7 7 6 4 2 2 3 3 3 5 8 8 7 7 7 7 7 7 6
7 -9 -11 -24 -9 20 9 10 17 17 24 2 -8 6 6 10 14 11 13 16 17 11 8 11 12 12 10 4 1 4 5 4 5 5 5 4 3 3 2 5 7 4 4 4 5 5 4 5 4 5 3 1 1 -1 0 4 1 -1 4 12 22 30 21 7 1 -2 1 7 8 6 7 7 4 3 3 2 3 3 4 6 8 7 7 7 7 7 7 6
12 -6 -7 -19 -22 20 15 -1 19 17 14 7 -9 -4 -4 -6 8 14 6 6 17 19 15 11 6 6 6 0 -2 3 8 7 6 7 7 4 2 4 4 4 7 7 4 5 6 3 3 5 4 4 3 0 1 0 -0 9 12 4 5 10 15 27 31 20 8 0 -3 2 10 9 6 8 6 2 3 2 1 3 3 4 6 8 8 8 7 7 7 6
11 3 0 -9 -20 18 8 -12 24 11 -9 12 11 11 13 0 7 17 8 -2 -5 -7 -7 -8 -11 -10 -4 0 4 6 7 8 7 6 7 6 3 2 4 5 6 7 5 5 5 4 3 5 6 4 5 5 4 5 4 5 10 9 7 8 10 16 28 32 18 5 0 -1 7 12 7 7 8 4 3 3 2 1 2 3 5 7 7 8 7 7 8 8
9 12 5 -2 -10 12 4 -8 23 11 -1 21 15 10 17 14 14 12 14 14 0 -10 -9 0 9 12 6 2 6 6 2 2 3 6 6 6 5 2 3 4 6 6 6 5 4 4 3 4 7 6 8 10 6 4 3 -1 1 6 4 1 2 5 17 31 26 12 4 1 3 9 10 6 7 7 4 2 2 1 1 2 4 6 7 8 7 6 6 8
14 16 0 1 -3 -2 4 12 18 5 5 10 5 8 4 9 18 2 1 13 14 16 16 10 10 17 17 9 9 12 12 8 5 8 9 7 7 5 3 4 5 5 5 5 4 5 4 2 6 9 9 7 5 4 3 1 1 4 3 -0 -1 1 7 19 29 24 11 4 2 6 12 9 6 7 6 3 2 1 2 3 3 4 5 5 6 6 5 5
18 20 3 -1 -5 -11 2 22 17 -2 0 -2 -2 4 -11 -4 18 7 -1 8 11 16 26 24 11 6 9 9 10 12 14 17 12 8 5 5 6 6 6 4 3 4 5 5 5 6 4 1 5 11 10 8 7 4 4 2 0 2 2 2 2 1 4 8 20 30 21 8 3 7 14 11 5 6 6 4 3 2 1 3 3 2 3 5 6 7 6 5
19 22 12 0 -4 -8 -6 16 22 -4 -8 -0 -4 -5 -7 1 14 9 1 8 13 1 5 22 20 13 9 4 4 4 5 10 12 9 6 4 3 4 7 6 4 4 4 5 6 6 5 7 15 17 10 6 6 4 4 3 -1 0 2 5 8 6 6 7 10 22 26 16 4 4 14 14 6 5 6 5 4 4 2 1 3 2 2 5 6 7 8 7
18 20 20 11 3 -5 -16 2 20 3 -3 3 -5 -4 11 15 11 9 3 5 18 11 2 5 8 16 18 12 12 11 7 7 10 11 11 12 8 4 5 6 7 6 5 5 6 7 5 5 12 16 13 6 4 2 2 3 2 1 1 4 10 11 10 9 7 13 23 26 12 -1 9 19 12 3 4 7 4 3 4 2 1 3 4 4 4 6 9 8
19 15 19 20 11 -5 -17 -5 15 14 3 -2 -1 3 12 16 5 5 9 4 11 22 19 10 4 5 7 13 19 17 13 13 12 9 8 13 14 11 7 5 5 5 5 4 4 9 9 8 8 9 11 8 6 6 4 4 3 2 0 1 6 8 8 7 7 7 13 28 27 6 2 11 11 8 4 4 6 3 2 3 2 2 4 4 4 6 7 7
23 13 12 25 23 -3 -15 4 20 15 -3 -7 10 3 -7 12 9 -1 8 6 7 16 15 10 6 2 -1 4 9 8 12 14 12 12 9 7 9 12 10 7 6 4 4 6 5 5 3 5 8 7 8 7 4 4 4 4 4 5 7 6 6 7 9 9 8 5 5 19 30 22 10 -1 -4 10 11 2 4 6 2 2 3 3 3 4 5 5 4 4
26 15 9 21 29 11 -4 1 7 11 1 -9 7 2 -13 10 15 1 2 4 9 12 8 5 4 8 8 3 2 1 0 -0 3 9 10 9 6 6 8 7 8 6 3 5 5 3 2 4 6 8 10 8 6 7 6 8 7 7 8 8 7 5 5 6 5 5 6 13 22 25 22 10 -3 5 15 7 1 4 3 1 3 3 4 5 6 6 5 4
26 16 11 20 32 24 -6 -26 -12 19 5 -26 -0 15 -3 9 16 2 -2 2 9 11 9 5 -1 12 20 7 5 7 2 3 7 7 5 9 8 5 6 4 5 10 11 13 14 10 8 9 10 12 10 7 12 14 8 6 6 4 4 5 5 3 1 1 2 5 7 10 19 22 19 20 12 4 13 14 3 1 2 1 3 4 4 5 6 6 5 4
24 15 13 22 37 24 -11 -24 -4 20 -0 -22 1 5 -2 23 20 0 2 4 6 7 11 12 4 13 19 6 6 9 11 13 8 9 9 7 8 7 7 7 3 6 9 12 17 16 10 8 6 3 2 4 10 11 5 4 6 6 4 4 4 3 1 1 1 3 4 3 11 22 22 22 19 8 9 15 9 4 3 2 2 3 4 4 5 6 5 4
23 17 12 26 40 21 4 9 5 -1 1 1 -7 -17 7 28 1 2 23 11 5 8 7 12 10 13 12 3 5 4 8 15 9 10 13 7 9 10 9 12 11 10 9 6 6 8 8 6 5 4 6 9 7 7 7 5 5 6 5 4 3 3 1 2 4 1 2 1 -2 7 18 25 25 13 9 15 13 7 3 4 5 2 4 5 4 6 5 5
22 16 13 32 39 23 21 18 -11 -20 4 10 -10 -14 8 -8 -33 12 38 8 10 15 3 12 18 22 23 8 3 0 -3 9 10 4 7 7 6 7 2 -4 -5 -2 2 -1 -3 -1 1 -0 1 5 7 8 10 12 13 9 6 5 4 4 3 3 3 3 4 -0 -0 4 1 -1 6 20 30 19 9 13 17 13 4 1 6 5 3 4 4 5 5 4
17 12 22 33 32 38 31 -4 -29 -25 -9 4 5 -8 -17 -28 -22 22 34 11 20 17 -1 14 19 15 28 21 10 8 1 3 7 2 6 11 8 4 5 1 -3 -2 -3 -5 -1 2 6 7 5 6 3 2 3 6 6 5 6 3 1 2 1 2 2 1 2 2 2 6 6 5 4 13 27 24 16 11 11 18 14 2 3 6 5 4 3 5 5 5
9 8 29 30 33 50 15 -29 -16 -5 -18 -10 -2 -24 -34 -9 5 11 19 15 19 19 3 7 11 -2 10 20 9 7 10 7 6 5 4 10 16 14 13 13 11 12 12 11 9 5 4 6 4 4 5 4 2 2 4 6 6 5 4 6 5 3 2 2 2 4 7 9 9 10 7 10 19 24 27 21 8 12 21 13 4 4 6 6 4 5 5 5
6 8 26 30 42 45 -5 -20 16 11 -17 -25 -24 -33 -33 2 18 5 14 14 9 24 16 1 11 7 2 12 7 2 10 8 3 9 6 -1 7 11 8 9 6 7 12 11 10 10 11 10 8 8 9 10 11 9 12 12 9 8 7 7 8 7 5 6 6 4 6 8 6 6 5 6 11 15 23 29 19 11 18 20 11 4 6 9 6 6 6 5
9 9 20 32 44 28 -7 6 26 7 -9 -23 -23 -11 -21 -7 15 -0 3 16 10 18 20 8 12 16 11 11 9 4 5 8 3 5 10 2 -3 1 3 6 7 6 5 2 2 5 9 13 15 14 12 10 10 9 9 9 6 4 4 2 3 5 5 5 5 3 3 2 -0 1 3 3 6 8 12 23 27 18 14 19 17 9 6 10 10 8 7 6
14 9 17 33 36 18 1 14 20 8 5 -7 -6 13 2 -1 12 -3 -7 13 20 15 13 16 12 12 17 13 11 9 3 8 8 -3 3 7 4 5 4 3 5 6 5 6 9 7 4 6 7 6 7 9 9 9 9 9 7 6 5 3 5 8 6 3 5 4 2 1 -0 1 5 4 3 6 8 14 24 23 16 17 20 13 4 6 11 12 10 8
17 11 19 30 26 15 9 15 16 9 9 8 9 12 8 10 11 3 -2 3 22 26 8 10 14 9 13 10 7 11 4 6 11 2 -1 0 -2 0 0 -1 -0 2 7 8 10 12 9 9 10 7 6 8 10 11 11 10 9 8 6 7 10 11 7 5 6 5 4 3 4 4 6 7 6 6 8 10 19 23 18 16 19 17 7 2 5 9 8 8
17 15 22 24 18 13 12 17 17 12 12 13 17 6 -6 10 20 15 9 -2 10 28 12 7 18 12 9 8 7 11 8 3 6 9 6 1 2 5 3 4 4 2 7 5 2 6 8 8 12 13 10 8 9 10 9 9 8 7 7 7 8 8 9 11 10 8 9 8 9 9 9 9 8 7 10 11 15 22 22 18 18 17 13 5 1 3 6 8
15 21 26 17 13 13 14 17 11 16 25 13 15 9 -25 -11 24 17 3 0 7 22 15 6 15 17 10 5 6 13 11 1 1 7 6 1 6 13 10 8 9 6 4 3 2 4 7 9 10 13 13 9 7 4 3 6 8 8 7 5 6 7 6 8 8 7 9 9 9 8 4 4 6 5 7 11 15 20 23 23 22 18 15 11 5 3 4 8
17 27 29 11 11 15 13 18 10 16 32 8 -1 8 -26 -34 8 15 -2 3 17 28 21 5 6 15 16 10 6 11 11 2 -1 2 4 4 6 12 12 8 10 12 9 7 5 3 3 4 3 4 6 6 9 9 7 8 10 11 12 11 10 12 12 11 11 8 7 9 8 8 6 6 9 8 6 9 12 15 18 21 23 21 18 16 12 9 7 6
20 30 29 9 13 18 8 14 14 11 19 1 -9 17 4 -30 -15 13 8 -2 10 31 31 14 3 5 13 11 4 5 4 -1 -0 0 -1 3 5 7 10 9 10 13 10 6 6 7 5 3 1 2 3 6 11 14 13 11 9 9 12 12 9 11 14 14 14 13 12 12 10 11 11 9 9 9 8 10 13 15 16 17 19 18 16 16 14 13 12 8
24 30 25 10 14 17 5 8 14 6 4 5 6 24 26 -7 -23 -6 3 -4 -1 18 29 21 8 7 10 5 2 6 4 -1 3 3 -1 3 8 8 10 10 9 7 5 3 7 10 8 5 4 5 7 8 6 6 8 8 8 8 7 7 5 3 3 4 7 8 9 10 9 9 11 11 11 10 8 7 10 16 18 17 19 18 14 16 17 16 15 12
33 30 19 15 18 14 5 7 14 8 7 18 20 19 28 24 2 -10 4 17 3 -4 17 23 9 9 13 10 9 11 9 8 7 4 4 8 10 9 9 7 5 5 5 6 7 5 5 4 4 4 7 8 4 1 2 2 3 5 3 3 5 5 7 9 8 6 4 4 6 6 6 11 14 12 9 7 7 14 20 17 17 19 18 17 17 18 19 17
34 28 16 18 23 16 5 2 5 10 17 22 14 11 23 30 17 -2 2 22 14 -2 15 27 12 8 9 9 15 15 9 9 10 7 6 8 8 6 8 7 4 6 8 8 6 3 5 5 2 3 3 -0 -2 -4 -1 2 3 5 5 2 1 2 3 4 6 9 8 5 6 8 6 7 9 7 8 11 11 13 21 21 14 12 15 16 15 16 17 18
24 21 14 14 19 17 9 3 1 3 9 10 3 5 10 7 13 11 -7 -6 3 6 21 29 20 14 10 5 9 15 13 7 8 11 7 8 10 5 5 6 2 4 5 3 5 7 11 10 6 6 3 -4 -2 -1 1 7 11 13 13 11 12 14 14 16 14 11 10 8 8 9 7 5 4 2 3 10 14 12 18 24 19 9 5 6 10 13 13 12
19 15 10 11 17 18 14 12 15 11 0 -3 -2 1 0 -8 2 17 6 -9 -15 -13 6 21 19 17 19 16 10 11 19 14 6 7 7 9 12 4 4 7 1 1 1 0 6 8 8 10 5 3 4 1 3 3 -1 6 13 15 14 15 18 22 25 24 14 5 8 12 9 7 9 10 7 7 8 13 18 16 14 19 21 17 10 3 1 4 7 9
15 13 9 9 12 19 20 11 18 27 14 2 -5 -10 -4 -2 -7 -1 8 10 0 -12 -15 -17 -9 11 20 21 16 9 14 18 10 8 5 5 10 7 5 4 -1 1 0 -2 5 7 4 6 1 -1 4 2 -0 -1 -4 -1 6 9 9 9 9 11 12 8 2 2 7 11 10 9 13 15 11 10 10 9 14 18 16 14 15 18 19 13 5 0 -1 2
11 16 15 8 3 13 20 8 11 24 18 13 10 0 5 9 -2 -8 -5 3 15 17 -3 -28 -16 20 25 19 24 16 10 13 12 13 14 9 9 9 4 0 -1 4 5 -1 -2 -0 1 5 4 2 3 0 -2 -0 1 4 9 10 8 6 6 5 1 -5 -4 4 4 4 9 10 10 12 9 8 6 2 5 14 19 17 12 11 15 16 14 10 6 5
11 19 17 15 7 5 12 8 9 16 10 10 12 6 13 19 12 4 -6 -8 4 16 16 9 17 37 33 20 20 15 11 17 14 15 21 20 16 13 5 -0 -3 -1 6 9 4 1 1 3 2 2 4 6 7 7 8 10 10 7 7 10 10 5 -2 -5 2 9 4 1 6 5 3 6 9 11 11 6 4 9 15 17 13 9 11 12 11 11 11 10
15 20 15 18 11 5 13 9 4 11 11 7 2 -3 9 26 27 17 8 4 5 9 20 26 27 37 39 27 18 13 12 17 13 9 15 21 23 20 9 3 3 -1 -1 5 6 5 5 5 5 9 14 15 14 14 14 13 10 10 11 8 0 -8 -8 1 11 13 7 6 10 10 5 5 12 19 19 12 7 6 8 14 17 15 15 15 13 10 9 8
15 21 18 19 10 4 16 15 7 12 12 7 8 3 1 11 14 14 22 23 15 16 21 10 3 17 24 21 23 20 10 3 -1 -3 -0 3 8 12 8 4 6 4 -3 -2 1 0 4 7 9 16 20 17 14 12 12 12 13 13 7 -3 -7 -5 4 13 15 12 10 12 15 12 8 8 14 19 17 9 6 5 5 13 20 18 15 16 16 13 11 10
13 18 21 20 10 5 12 16 14 14 10 4 6 3 -6 -4 -1 0 14 18 4 3 4 -12 -14 -3 0 12 26 21 11 7 4 1 1 -1 -2 2 7 7 5 4 2 -0 1 -1 -2 1 1 1 5 8 6 4 6 8 8 7 3 1 5 10 12 11 6 4 8 11 9 7 11 14 9 8 12 10 8 11 11 12 13 11 10 12 13 13 14 15
Height
5639 5647 5653 5658 5665 5670 5676 5682 5688 5695 5701 5706 5712 5718 5723 5729 5734 5739 5744 5749 5753 5757 5761 5765 5768 5772 5775 5778 5782 5785 5788 5791 5795 5798 5802 5805 5807 5810 5813 5815 5817 5819 5820 5822 5824 5826 5828 5830 5832 5835 5837 5839 5841 5842 5844 5846 5848 5850 5853 5856 5859 5861 5864 5865 5866 5867 5868 5870 5872 5874 5875 5877 5877 5878 5880 5881 5882 5883 5884 5884 5884 5885 5885 5885 5885 5885 5886 5886
5634 5642 5649 5654 5661 5666 5671 5678 5683 5690 5697 5702 5708 5714 5719 5725 5730 5735 5740 5745 5750 5754 5757 5761 5765 5769 5772 5775 5778 5782 5785 5788 5791 5795 5799 5802 5804 5807 5811 5813 5815 5817 5819 5820 5822 5824 5827 5829 5831 5833 5835 5837 5838 5840 5842 5844 5846 5848 5851 5855 5858 5860 5862 5863 5865 5866 5867 5868 5870 5873 5874 5876 5877 5878 5879 5881 5882 5883 5883 5883 5884 5884 5885 5886 5886 5886 5886 5887
5629 5637 5644 5649 5656 5661 5667 5674 5680 5687 5693 5698 5704 5710 5715 5721 5726 5731 5736 5741 5746 5750 5754 5758 5762 5766 5769 5772 5775 5778 5782 5785 5788 5793 5796 5799 5802 5806 5809 5812 5813 5815 5817 5819 5820 5822 5825 5827 5829 5831 5833 5834 5836 5838 5840 5843 5845 5846 5849 5853 5856 5858 5859 5861 5863 5864 5865 5867 5869 5871 5872 5875 5876 5877 5879 5880 5881 5882 5882 5883 5883 5884 5885 5886 5887 5886 5886 5887
5624 5632 5638 5644 5651 5657 5662 5669 5676 5682 5687 5693 5700 5705 5711 5717 5722 5727 5732 5738 5742 5746 5750 5754 5758 5762 5765 5769 5771 5775 5778 5781 5786 5791 5793 5796 5800 5804 5807 5810 5812 5814 5815 5817 5818 5820 5822 5825 5827 5829 5830 5832 5834 5835 5837 5841 5843 5845 5849 5852 5854 5856 5857 5859 5861 5863 5864 5865 5867 5869 5871 5873 5875 5876 5877 5879 5880 5880 5881 5882 5883 5884 5885 5885 5887 5887 5887 5888
5620 5626 5633 5640 5647 5654 5659 5664 5671 5676 5683 5690 5696 5701 5707 5713 5718 5723 5729 5734 5739 5743 5747 5751 5755 5758 5762 5765 5768 5771 5774 5778 5784 5788 5790 5793 5797 5801 5805 5807 5810 5812 5813 5815 5816 5818 5820 5822 5825 5826 5828 5830 5832 5834 5836 5838 5841 5844 5848 5850 5852 5853 5856 5858 5859 5861 5863 5864 5866 5868 5869 5871 5874 5875 5876 5877 5877 5878 5880 5882 5883 5884 5884 5885 5886 5887 5887 5888
5615 5621 5629 5636 5643 5651 5656 5660 5667 5672 5678 5686 5692 5697 5702 5708 5714 5719 5725 5730 5735 5739 5744 5748 5751 5755 5758 5762 5764 5768 5771 5776 5783 5786 5787 5791 5794 5798 5802 5805 5808 5809 5811 5812 5814 5816 5817 5820 5822 5824 5826 5828 5830 5832 5834 5836 5839 5843 5847 5848 5849 5851 5854 5856 5858 5860 5861 5863 5865 5865 5866 5869 5872 5873 5874 5875 5875 5878 5880 5881 5883 5884 5884 5885 5886 5887 5887 5888
5609 5616 5624 5631 5638 5646 5651 5658 5665 5668 5674 5681 5688 5694 5698 5704 5710 5715 5721 5725 5730 5735 5740 5744 5748 5751 5755 5758 5761 5764 5768 5773 5780 5782 5784 5788 5791 5795 5798 5802 5805 5807 5809 5810 5812 5814 5816 5817 5820 5822 5825 5826 5827 5830 5832 5834 5837 5841 5844 5846 5847 5850 5852 5854 5857 5859 5861 5862 5863 5863 5865 5867 5869 5870 5873 5873 5874 5877 5878 5879 5881 5882 5883 5885 5885 5886 5887 5887
5603 5611 5619 5627 5634 5641 5647 5654 5661 5665 5670 5676 5684 5690 5694 5700 5706 5711 5716 5721 5726 5731 5735 5740 5744 5748 5751 5755 5758 5761 5766 5771 5776 5779 5781 5785 5788 5791 5795 5798 5802 5804 5806 5808 5810 5812 5813 5815 5817 5820 5823 5824 5826 5828 5831 5831 5834 5838 5842 5843 5845 5849 5851 5852 5855 5857 5860 5861 5861 5863 5865 5866 5867 5869 5871 5871 5873 5876 5877 5878 5880 5881 5882 5884 5885 5886 5887 5887
5599 5606 5614 5622 5629 5637 5642 5648 5656 5662 5667 5673 5680 5686 5690 5696 5702 5707 5712 5717 5722 5726 5731 5735 5739 5744 5748 5752 5755 5759 5766 5770 5773 5777 5779 5782 5786 5789 5792 5796 5799 5802 5804 5806 5808 5809 5811 5813 5815 5818 5820 5823 5825 5827 5829 5829 5832 5836 5839 5841 5843 5847 5849 5851 5853 5855 5858 5859 5861 5862 5863 5865 5866 5868 5869 5870 5873 5875 5875 5877 5878 5880 5881 5882 5884 5886 5887 5887
5594 5601 5609 5617 5625 5632 5636 5643 5653 5658 5663 5670 5677 5682 5686 5692 5697 5703 5708 5713 5717 5722 5726 5730 5735 5739 5744 5749 5752 5758 5764 5765 5769 5774 5776 5780 5783 5786 5789 5793 5796 5799 5802 5804 5806 5807 5809 5811 5813 5816 5818 5820 5823 5825 5827 5827 5830 5834 5837 5839 5842 5844 5846 5848 5851 5853 5855 5857 5859 5861 5862 5863 5864 5867 5868 5869 5872 5873 5874 5876 5877 5879 5880 5881 5883 5885 5886 5887
5589 5596 5603 5612 5620 5627 5633 5639 5649 5654 5660 5667 5673 5678 5683 5688 5693 5699 5704 5709 5714 5718 5722 5726 5731 5736 5740 5745 5750 5757 5761 5761 5765 5770 5773 5776 5780 5783 5786 5790 5793 5796 5799 5801 5803 5805 5807 5809 5811 5813 5815 5818 5821 5823 5825 5826 5828 5832 5835 5838 5839 5841 5843 5846 5848 5850 5853 5855 5857 5859 5860 5861 5863 5866 5867 5868 5870 5871 5873 5875 5876 5877 5879 5880 5882 5884 5885 5886
5583 5591 5599 5607 5615 5623 5629 5635 5644 5651 5657 5663 5669 5675 5681 5686 5690 5695 5700 5705 5710 5714 5718 5722 5726 5731 5736 5741 5747 5753 5755 5757 5762 5767 5770 5773 5776 5779 5783 5786 5789 5792 5795 5797 5800 5802 5804 5806 5809 5811 5812 5815 5817 5820 5823 5825 5827 5830 5833 5835 5837 5838 5841 5843 5845 5848 5850 5852 5855 5856 5858 5860 5864 5866 5865 5866 5869 5870 5872 5874 5875 5876 5878 5879 5881 5883 5884 5884
5577 5586 5594 5602 5610 5617 5623 5631 5640 5647 5653 5659 5664 5671 5677 5682 5687 5691 5696 5701 5706 5710 5714 5718 5722 5727 5731 5737 5744 5748 5750 5754 5758 5762 5766 5770 5772 5776 5779 5782 5785 5787 5790 5794 5796 5799 5801 5803 5806 5808 5809 5812 5814 5817 5821 5823 5825 5828 5830 5832 5834 5836 5838 5841 5843 5845 5847 5850 5852 5854 5855 5860 5865 5864 5862 5865 5867 5869 5871 5872 5873 5875 5876 5878 5880 5881 5882 5884
5571 5580 5589 5598 5605 5612 5618 5626 5635 5642 5649 5654 5660 5667 5674 5679 5684 5688 5693 5697 5701 5705 5709 5713 5717 5721 5726 5733 5739 5742 5746 5750 5754 5759 5763 5766 5769 5772 5775 5779 5782 5785 5788 5791 5794 5797 5799 5801 5804 5805 5807 5810 5812 5815 5818 5820 5823 5825 5828 5830 5832 5833 5836 5839 5840 5842 5844 5847 5850 5851 5854 5860 5863 5860 5859 5862 5865 5867 5869 5870 5872 5873 5875 5877 5878 5879 5881 5883
5566 5574 5584 5593 5600 5607 5613 5621 5630 5637 5644 5652 5658 5664 5671 5676 5681 5686 5689 5692 5696 5699 5704 5708 5711 5715 5721 5727 5733 5737 5743 5747 5751 5756 5760 5763 5766 5769 5772 5776 5779 5783 5786 5789 5791 5794 5796 5799 5802 5804 5806 5809 5810 5812 5815 5818 5821 5823 5826 5828 5829 5831 5835 5836 5837 5839 5841 5844 5847 5848 5852 5859 5860 5856 5858 5861 5863 5865 5867 5869 5870 5872 5874 5875 5876 5878 5879 5881
5561 5568 5578 5588 5595 5603 5609 5616 5625 5633 5641 5649 5655 5660 5668 5673 5678 5683 5685 5689 5691 5693 5698 5701 5704 5710 5716 5722 5728 5734 5739 5744 5748 5752 5756 5760 5763 5766 5769 5772 5776 5779 5782 5785 5787 5790 5793 5796 5800 5802 5804 5806 5808 5810 5812 5816 5818 5821 5823 5826 5827 5828 5832 5834 5834 5836 5838 5841 5844 5845 5850 5857 5857 5855 5857 5860 5862 5863 5865 5867 5869 5870 5872 5873 5874 5875 5877 5879
5556 5563 5573 5582 5591 5599 5606 5612 5620 5629 5636 5644 5652 5657 5664 5670 5675 5680 5681 5682 5684 5688 5693 5696 5701 5707 5708 5714 5724 5732 5738 5742 5745 5748 5751 5756 5760 5763 5765 5768 5772 5775 5778 5781 5783 5785 5789 5793 5797 5800 5802 5804 5806 5808 5809 5812 5815 5818 5821 5823 5824 5826 5829 5831 5832 5834 5836 5838 5841 5843 5848 5855 5855 5853 5856 5859 5859 5861 5863 5865 5866 5867 5869 5871 5872 5874 5876 5878
5551 5558 5568 5577 5586 5595 5602 5609 5616 5624 5632 5640 5649 5654 5660 5666 5671 5673 5672 5672 5675 5680 5684 5687 5692 5695 5699 5712 5725 5731 5736 5739 5741 5744 5747 5752 5757 5760 5763 5766 5769 5771 5774 5777 5779 5782 5785 5790 5794 5797 5799 5801 5802 5804 5807 5810 5813 5816 5818 5820 5821 5823 5826 5829 5831 5832 5834 5836 5838 5841 5846 5852 5853 5851 5854 5857 5857 5859 5861 5861 5863 5864 5866 5869 5871 5873 5874 5876
5546 5554 5563 5572 5582 5591 5598 5605 5612 5620 5629 5637 5645 5650 5656 5662 5666 5666 5662 5662 5664 5667 5672 5678 5685 5692 5704 5718 5725 5727 5731 5734 5737 5740 5744 5749 5754 5757 5760 5762 5765 5768 5770 5773 5776 5779 5782 5786 5790 5793 5796 5799 5801 5804 5806 5810 5812 5813 5815 5817 5819 5821 5823 5826 5828 5829 5831 5833 5835 5838 5843 5850 5850 5849 5851 5854 5855 5856 5857 5858 5860 5863 5865 5867 5869 5870 5872 5873
5541 5551 5560 5567 5578 5587 5594 5601 5609 5616 5624 5632 5639 5643 5646 5649 5651 5650 5651 5654 5660 5668 5677 5685 5690 5698 5708 5714 5717 5721 5724 5727 5732 5736 5740 5744 5749 5753 5756 5758 5761 5764 5767 5771 5774 5776 5779 5782 5787 5791 5795 5798 5801 5803 5804 5807 5810 5810 5812 5815 5817 5819 5821 5823 5825 5826 5827 5829 5832 5834 5838 5845 5847 5846 5848 5851 5852 5853 5855 5856 5859 5861 5862 5864 5865 5867 5868 5870
5537 5547 5556 5563 5575 5584 5590 5597 5605 5611 5619 5627 5631 5633 5637 5640 5640 5642 5648 5654 5661 5671 5678 5683 5688 5694 5701 5706 5710 5715 5716 5720 5726 5729 5733 5738 5743 5747 5751 5754 5758 5760 5764 5767 5770 5773 5776 5779 5784 5788 5792 5795 5798 5799 5801 5804 5806 5807 5809 5812 5814 5816 5818 5820 5822 5823 5824 5825 5828 5830 5833 5840 5844 5843 5844 5847 5848 5850 5852 5853 5856 5858 5859 5860 5862 5863 5866 5867
5534 5543 5553 5560 5570 5580 5585 5592 5599 5605 5612 5618 5622 5626 5631 5637 5641 5646 5652 5655 5659 5665 5670 5676 5681 5688 5696 5702 5705 5707 5709 5715 5720 5722 5726 5731 5736 5742 5746 5750 5754 5757 5760 5763 5766 5770 5773 5776 5781 5785 5789 5792 5794 5795 5797 5800 5802 5804 5806 5809 5811 5813 5815 5816 5818 5820 5821 5822 5825 5827 5829 5835 5841 5841 5841 5842 5845 5848 5849 5850 5853 5855 5856 5858 5861 5862 5864 5864
5530 5539 5548 5555 5566 5576 5580 5585 5591 5596 5602 5608 5616 5625 5630 5633 5639 5646 5650 5652 5653 5656 5661 5666 5671 5679 5688 5693 5697 5701 5705 5711 5716 5719 5722 5727 5732 5737 5742 5746 5750 5753 5756 5760 5764 5767 5771 5776 5780 5784 5787 5790 5792 5793 5795 5797 5800 5802 5804 5807 5809 5810 5811 5813 5814 5816 5818 5819 5821 5823 5825 5830 5837 5838 5838 5839 5842 5845 5846 5848 5850 5852 5855 5857 5859 5861 5861 5863
5526 5534 5542 5550 5561 5568 5573 5578 5582 5588 5596 5606 5617 5625 5629 5631 5637 5643 5646 5646 5647 5652 5656 5659 5665 5673 5679 5685 5691 5695 5700 5707 5713 5716 5720 5725 5730 5734 5739 5743 5747 5750 5753 5758 5762 5765 5770 5774 5777 5780 5783 5786 5788 5791 5793 5795 5798 5800 5802 5805 5807 5807 5807 5808 5810 5812 5814 5815 5817 5820 5820 5825 5832 5835 5835 5837 5839 5842 5844 5846 5849 5851 5853 5855 5857 5858 5860 5861
5523 5528 5536 5544 5553 5561 5565 5568 5575 5585 5594 5605 5614 5620 5623 5626 5632 5638 5640 5640 5642 5646 5649 5651 5659 5667 5673 5681 5685 5688 5696 5702 5706 5710 5716 5722 5727 5732 5736 5739 5743 5747 5751 5756 5759 5763 5766 5769 5772 5775 5778 5782 5784 5787 5790 5793 5795 5797 5799 5802 5803 5803 5803 5805 5806 5807 5810 5812 5814 5815 5815 5820 5828 5831 5833 5835 5835 5839 5842 5843 5847 5849 5850 5852 5854 5856 5858 5859
5519 5523 5529 5537 5546 5551 5554 5561 5574 5583 5589 5600 5610 5616 5620 5624 5628 5631 5633 5635 5634 5634 5639 5646 5654 5661 5669 5676 5678 5683 5690 5694 5700 5707 5712 5716 5722 5727 5731 5735 5739 5744 5749 5753 5755 5759 5762 5765 5767 5770 5773 5777 5779 5783 5787 5789 5791 5793 5796 5799 5799 5799 5799 5800 5802 5803 5806 5809 5810 5812 5812 5816 5823 5828 5831 5832 5831 5834 5839 5840 5844 5846 5847 5849 5851 5854 5855 5856
5514 5518 5522 5531 5538 5542 5550 5566 5574 5577 5587 5600 5608 5613 5618 5622 5626 5626 5627 5626 5622 5625 5635 5642 5649 5657 5666 5670 5673 5677 5681 5689 5697 5702 5707 5711 5715 5720 5725 5730 5735 5741 5746 5748 5751 5755 5758 5761 5763 5767 5770 5773 5777 5781 5784 5786 5789 5791 5794 5795 5796 5796 5796 5796 5798 5800 5803 5805 5807 5810 5811 5811 5816 5824 5826 5826 5827 5829 5834 5837 5840 5842 5844 5846 5849 5851 5852 5853
5509 5513 5516 5524 5531 5539 5553 5563 5565 5574 5592 5602 5606 5611 5615 5618 5622 5621 5618 5612 5611 5620 5630 5636 5645 5655 5660 5662 5667 5672 5680 5690 5693 5695 5701 5705 5710 5715 5720 5725 5732 5737 5742 5745 5749 5754 5756 5759 5762 5766 5769 5773 5777 5780 5782 5784 5786 5789 5791 5792 5792 5793 5793 5794 5795 5798 5799 5801 5804 5808 5810 5807 5811 5821 5823 5821 5823 5825 5829 5834 5836 5838 5841 5843 5846 5847 5848 5849
5504 5506 5510 5517 5526 5537 5545 5547 5557 5575 5589 5594 5600 5607 5611 5615 5616 5612 5607 5602 5606 5617 5625 5632 5640 5646 5651 5656 5662 5669 5677 5683 5686 5693 5698 5699 5704 5710 5715 5723 5728 5732 5736 5741 5746 5749 5752 5756 5759 5762 5766 5771 5774 5775 5777 5779 5782 5785 5787 5787 5788 5789 5790 5791 5792 5795 5795 5796 5802 5806 5806 5804 5805 5815 5820 5818 5820 5822 5825 5829 5832 5834 5836 5838 5841 5843 5844 5845
5499 5502 5506 5511 5520 5529 5531 5538 5559 5574 5578 5585 5594 5599 5604 5607 5604 5600 5595 5593 5601 5611 5617 5625 5633 5638 5645 5651 5657 5664 5670 5675 5682 5689 5692 5695 5702 5707 5712 5718 5721 5725 5731 5736 5739 5742 5747 5751 5753 5757 5762 5765 5766 5767 5770 5774 5777 5780 5781 5782 5783 5783 5785 5785 5787 5790 5789 5793 5801 5803 5802 5801 5799 5807 5816 5816 5817 5820 5822 5824 5827 5829 5832 5834 5836 5838 5840 5841
5494 5499 5502 5505 5515 5522 5525 5542 5561 5567 5570 5579 5586 5591 5595 5594 5590 5587 5586 5591 5600 5606 5612 5620 5628 5635 5641 5646 5652 5658 5664 5671 5677 5680 5683 5690 5697 5701 5705 5709 5713 5719 5725 5730 5734 5739 5743 5746 5749 5755 5758 5759 5760 5763 5766 5770 5772 5774 5776 5777 5778 5779 5780 5780 5782 5783 5785 5791 5797 5797 5798 5797 5795 5801 5812 5815 5815 5817 5818 5820 5822 5825 5827 5829 5831 5833 5836 5838
5491 5494 5497 5503 5511 5515 5527 5546 5556 5558 5564 5573 5578 5581 5582 5579 5576 5576 5582 5591 5596 5599 5607 5616 5624 5631 5639 5646 5651 5654 5658 5664 5670 5675 5681 5687 5692 5696 5700 5704 5710 5715 5720 5726 5730 5734 5738 5741 5746 5750 5752 5754 5756 5759 5762 5765 5768 5769 5771 5772 5773 5775 5775 5777 5778 5779 5782 5788 5790 5791 5793 5794 5795 5800 5807 5812 5813 5813 5814 5816 5818 5820 5823 5825 5827 5829 5832 5834
5486 5489 5494 5500 5505 5513 5529 5539 5540 5545 5557 5566 5570 5571 5569 5566 5565 5570 5580 5588 5590 5597 5609 5618 5625 5632 5636 5640 5643 5648 5655 5661 5665 5671 5678 5683 5688 5693 5697 5702 5708 5713 5721 5727 5728 5731 5735 5738 5742 5746 5749 5752 5754 5757 5760 5763 5766 5767 5768 5770 5771 5773 5774 5776 5777 5778 5782 5785 5786 5787 5788 5791 5796 5798 5800 5807 5809 5809 5811 5812 5814 5817 5819 5821 5823 5825 5828 5830
5481 5484 5490 5495 5501 5513 5522 5523 5529 5540 5548 5555 5560 5560 5557 5555 5560 5571 5578 5582 5589 5599 5608 5614 5621 5627 5630 5633 5637 5644 5652 5657 5663 5669 5673 5676 5680 5685 5691 5698 5705 5712 5720 5724 5726 5731 5735 5738 5743 5746 5748 5751 5753 5756 5759 5761 5764 5765 5767 5768 5770 5772 5774 5775 5776 5777 5780 5781 5781 5784 5785 5789 5795 5795 5795 5800 5803 5805 5807 5809 5811 5813 5815 5817 5819 5821 5824 5825
5473 5478 5485 5489 5495 5504 5507 5512 5526 5535 5538 5545 5549 5547 5545 5549 5558 5568 5573 5577 5587 5596 5602 5609 5616 5619 5623 5628 5636 5643 5647 5652 5659 5664 5667 5670 5676 5683 5690 5696 5702 5708 5713 5716 5720 5726 5730 5735 5740 5743 5745 5747 5749 5752 5755 5756 5758 5760 5761 5763 5766 5769 5770 5771 5772 5774 5775 5775 5777 5780 5783 5787 5791 5791 5791 5793 5798 5802 5803 5804 5807 5809 5810 5812 5814 5817 5819 5820
5466 5474 5478 5481 5488 5495 5499 5508 5520 5525 5529 5537 5538 5536 5540 5550 5559 5567 5572 5579 5586 5592 5598 5604 5608 5612 5616 5623 5630 5637 5644 5650 5655 5658 5662 5669 5676 5682 5689 5694 5699 5706 5711 5714 5717 5721 5726 5730 5734 5737 5739 5741 5743 5746 5749 5750 5752 5753 5755 5759 5764 5765 5765 5766 5768 5770 5771 5770 5774 5778 5780 5784 5786 5787 5787 5789 5793 5797 5798 5800 5802 5803 5805 5807 5809 5811 5813 5815
5460 5468 5470 5474 5483 5489 5494 5504 5512 5516 5523 5529 5529 5531 5541 5553 5560 5566 5574 5581 5586 5592 5596 5598 5600 5605 5612 5619 5625 5632 5640 5647 5651 5655 5660 5667 5673 5679 5685 5691 5697 5705 5711 5714 5716 5720 5724 5728 5731 5733 5735 5737 5740 5742 5743 5745 5747 5749 5753 5757 5760 5760 5761 5762 5763 5765 5766 5767 5771 5774 5776 5779 5781 5783 5785 5786 5788 5792 5793 5794 5796 5798 5800 5802 5804 5806 5806 5808
5455 5462 5461 5468 5478 5483 5489 5499 5505 5510 5517 5522 5525 5531 5542 5550 5555 5561 5570 5577 5582 5588 5592 5594 5598 5605 5612 5618 5623 5630 5637 5640 5643 5651 5658 5665 5672 5680 5685 5690 5695 5700 5705 5709 5712 5716 5720 5723 5725 5729 5731 5733 5735 5737 5738 5741 5743 5746 5750 5752 5753 5755 5757 5758 5759 5761 5763 5763 5767 5771 5771 5774 5778 5781 5783 5783 5783 5786 5788 5790 5792 5794 5795 5797 5799 5800 5800 5803
5449 5451 5449 5461 5473 5478 5484 5493 5500 5506 5511 5514 5518 5526 5536 5543 5550 5557 5565 5572 5579 5584 5588 5593 5599 5605 5611 5618 5625 5629 5632 5635 5640 5647 5654 5662 5670 5678 5684 5689 5693 5696 5701 5704 5707 5711 5714 5717 5720 5723 5725 5727 5729 5731 5734 5737 5739 5742 5745 5747 5749 5751 5752 5753 5754 5757 5758 5759 5763 5765 5766 5771 5777 5778 5778 5779 5779 5780 5783 5786 5787 5789 5790 5791 5793 5794 5796 5798
5441 5440 5441 5459 5468 5471 5481 5490 5494 5497 5500 5507 5514 5521 5531 5539 5546 5554 5562 5570 5577 5581 5586 5592 5598 5604 5610 5617 5623 5626 5628 5633 5639 5646 5652 5659 5667 5674 5679 5683 5687 5692 5697 5700 5703 5706 5710 5713 5716 5718 5720 5722 5724 5728 5732 5735 5737 5739 5742 5744 5746 5748 5748 5750 5751 5753 5755 5756 5758 5759 5761 5769 5775 5774 5773 5775 5775 5776 5777 5780 5782 5784 5785 5786 5787 5788 5791 5793
5434 5431 5434 5453 5461 5466 5476 5478 5478 5486 5494 5504 5512 5517 5527 5537 5544 5551 5560 5569 5575 5579 5585 5591 5597 5603 5609 5613 5617 5622 5627 5632 5638 5644 5650 5657 5663 5670 5675 5679 5684 5688 5690 5693 5696 5700 5704 5707 5710 5713 5716 5719 5721 5725 5729 5730 5733 5736 5738 5741 5743 5743 5745 5746 5747 5750 5751 5752 5754 5755 5757 5767 5771 5769 5769 5770 5770 5771 5773 5774 5777 5778 5779 5780 5782 5784 5785 5787
5425 5421 5429 5447 5454 5459 5466 5464 5469 5482 5490 5498 5507 5513 5524 5533 5541 5549 5558 5564 5570 5575 5581 5587 5593 5599 5604 5610 5615 5620 5625 5631 5637 5642 5648 5656 5662 5668 5673 5676 5681 5684 5688 5692 5695 5697 5700 5702 5704 5708 5712 5715 5717 5721 5724 5726 5729 5732 5734 5737 5738 5737 5739 5740 5742 5745 5746 5748 5752 5752 5754 5762 5767 5765 5765 5765 5765 5767 5767 5769 5771 5772 5773 5775 5777 5779 5780 5781
5417 5421 5432 5444 5449 5453 5457 5457 5466 5477 5484 5496 5509 5515 5521 5530 5538 5546 5553 5559 5565 5571 5576 5581 5587 5593 5598 5606 5613 5618 5623 5629 5636 5641 5648 5653 5659 5665 5669 5672 5676 5679 5682 5687 5690 5694 5696 5698 5701 5705 5708 5711 5714 5717 5720 5723 5725 5727 5730 5732 5731 5732 5735 5736 5738 5741 5741 5745 5749 5748 5750 5758 5763 5762 5761 5760 5761 5762 5762 5763 5766 5767 5769 5770 5771 5773 5775 5776
5416 5424 5430 5438 5444 5447 5445 5446 5455 5468 5481 5496 5507 5512 5518 5527 5536 5542 5547 5553 5561 5568 5573 5577 5584 5591 5598 5603 5610 5616 5622 5628 5633 5639 5645 5650 5653 5659 5663 5668 5672 5675 5679 5684 5688 5690 5691 5692 5696 5700 5703 5706 5710 5713 5716 5720 5722 5724 5726 5727 5728 5730 5732 5733 5736 5737 5739 5744 5746 5744 5749 5756 5759 5760 5759 5757 5758 5759 5758 5760 5761 5763 5764 5765 5767 5768 5769 5770
5412 5416 5421 5429 5435 5436 5438 5448 5460 5470 5480 5491 5499 5506 5513 5522 5531 5539 5547 5555 5563 5569 5573 5577 5584 5590 5595 5600 5607 5613 5619 5625 5629 5634 5640 5646 5650 5654 5658 5663 5668 5672 5678 5682 5684 5687 5688 5689 5693 5696 5699 5703 5708 5712 5716 5720 5721 5722 5724 5726 5728 5730 5730 5733 5735 5735 5739 5745 5744 5744 5750 5755 5755 5754 5754 5753 5754 5754 5755 5756 5757 5758 5760 5761 5762 5763 5764 5766
5399 5400 5405 5415 5423 5428 5438 5454 5465 5471 5479 5486 5494 5501 5508 5516 5526 5537 5546 5553 5558 5563 5568 5574 5579 5583 5588 5594 5599 5605 5613 5621 5627 5632 5637 5642 5647 5651 5656 5661 5665 5669 5673 5675 5679 5682 5684 5686 5691 5694 5698 5705 5709 5713 5717 5717 5717 5719 5722 5724 5725 5726 5727 5728 5728 5731 5739 5741 5740 5743 5748 5751 5750 5749 5748 5747 5747 5749 5751 5752 5753 5753 5754 5756 5757 5758 5759 5760
5392 5390 5391 5397 5406 5417 5431 5444 5454 5465 5475 5483 5490 5497 5504 5514 5524 5531 5538 5544 5550 5556 5563 5568 5573 5577 5583 5589 5594 5601 5608 5615 5622 5630 5636 5641 5646 5649 5654 5658 5661 5664 5668 5671 5675 5677 5678 5682 5688 5692 5697 5703 5705 5707 5709 5709 5710 5713 5715 5716 5717 5719 5721 5721 5723 5730 5734 5732 5734 5741 5744 5745 5745 5743 5741 5741 5741 5743 5746 5746 5746 5747 5748 5749 5750 5751 5753 5754
5383 5386 5392 5397 5401 5407 5418 5431 5445 5459 5470 5479 5490 5498 5502 5511 5520 5525 5531 5539 5546 5552 5558 5564 5570 5576 5582 5588 5593 5599 5602 5607 5615 5623 5630 5637 5642 5645 5649 5654 5658 5662 5665 5667 5670 5673 5675 5680 5686 5690 5694 5697 5698 5700 5702 5704 5706 5707 5708 5710 5712 5713 5715 5717 5722 5729 5729 5726 5732 5738 5738 5738 5739 5738 5736 5735 5734 5737 5739 5738 5738 5740 5741 5742 5744 5745 5746 5747
5376 5382 5393 5404 5410 5415 5424 5435 5446 5456 5465 5475 5485 5492 5498 5507 5516 5524 5532 5538 5544 5550 5556 5564 5571 5576 5580 5586 5591 5595 5598 5603 5609 5616 5625 5632 5637 5641 5644 5647 5651 5655 5658 5661 5665 5668 5671 5677 5682 5685 5688 5690 5691 5693 5697 5698 5700 5701 5703 5706 5707 5709 5712 5717 5722 5725 5723 5723 5731 5733 5731 5734 5735 5734 5733 5731 5729 5730 5732 5732 5734 5734 5735 5737 5737 5738 5739 5740
5373 5378 5386 5396 5410 5424 5434 5441 5448 5455 5464 5472 5479 5487 5496 5505 5514 5524 5531 5537 5544 5550 5556 5565 5573 5576 5580 5585 5589 5594 5600 5607 5612 5616 5621 5625 5629 5634 5637 5641 5645 5648 5650 5653 5657 5661 5666 5671 5675 5678 5680 5682 5684 5688 5690 5691 5693 5695 5697 5700 5703 5706 5711 5715 5718 5719 5717 5721 5728 5727 5726 5731 5732 5730 5730 5728 5725 5725 5726 5729 5731 5731 5731 5731 5731 5732 5733 5734
5376 5385 5392 5398 5408 5421 5431 5438 5446 5453 5459 5466 5474 5483 5493 5502 5513 5523 5531 5539 5548 5554 5560 5568 5573 5576 5579 5583 5588 5595 5604 5611 5616 5620 5623 5624 5626 5629 5632 5637 5641 5643 5646 5649 5652 5657 5661 5665 5669 5672 5673 5676 5680 5681 5682 5685 5687 5688 5691 5696 5701 5705 5708 5710 5713 5713 5715 5719 5722 5720 5723 5729 5729 5727 5727 5724 5722 5723 5724 5726 5727 5726 5725 5725 5724 5726 5727 5729
5377 5388 5399 5408 5415 5420 5426 5434 5441 5448 5454 5463 5473 5483 5493 5503 5514 5522 5529 5536 5544 5552 5561 5568 5572 5574 5577 5581 5589 5597 5604 5608 5611 5616 5621 5625 5628 5630 5634 5638 5641 5643 5646 5649 5652 5656 5659 5662 5667 5669 5669 5673 5676 5676 5679 5681 5679 5681 5689 5698 5702 5702 5703 5705 5708 5711 5712 5714 5714 5716 5721 5724 5723 5723 5723 5721 5720 5721 5721 5721 5721 5720 5719 5719 5719 5721 5723 5725